KB3UNV-1 Weather Reports


Display with metric or nautical units.
time (UTC)temp
F
wind
direction
speed
MPH
gust
MPH
rain 1hr
in
rain 24hr
in
rain mn
in
humidity
%
barometer
mb
20260509224057 62 212 11.0 16.0 0.00 0.15 0.00 66 1002.5
20260509223101 62 360 7.0 13.0 0.00 0.15 0.00 67 1002.4
20260509222600 62 360 8.0 16.0 0.00 0.15 0.00 67 1002.2
20260509222056 62 201 11.0 25.0 0.00 0.15 0.00 66 1002.1
20260509221556 62 210 14.0 25.0 0.00 0.15 0.00 66 1002.1
20260509221057 62 210 9.0 17.0 0.00 0.15 0.00 67 1002.0
20260509220556 62 360 9.0 17.0 0.00 0.15 0.00 66 1002.0
20260509220056 62 360 8.0 18.0 0.00 0.15 0.00 67 1002.0
20260509215556 62 360 11.0 22.0 0.00 0.15 0.00 65 1002.2
20260509215056 62 360 14.0 22.0 0.00 0.15 0.00 66 1002.2
20260509214619 62 219 9.0 20.0 0.00 0.15 0.00 67 1002.2
20260509214055 62 360 12.0 25.0 0.00 0.15 0.00 66 1002.1
20260509213056 63 360 15.0 22.0 0.00 0.15 0.00 65 1002.1
20260509212555 63 144 15.0 22.0 0.00 0.15 0.00 64 1002.0
20260509212058 63 360 11.0 20.0 0.00 0.15 0.00 65 1002.1
20260509211555 63 205 15.0 20.0 0.00 0.15 0.00 65 1002.0
20260509211054 63 360 13.0 22.0 0.00 0.15 0.00 65 1002.1
20260509210554 63 360 9.0 25.0 0.00 0.15 0.00 66 1002.3
20260509210058 63 360 17.0 25.0 0.00 0.15 0.00 66 1002.4
20260509205551 62 360 15.0 25.0 0.00 0.15 0.00 66 1002.4
20260509205050 62 196 14.0 26.0 0.00 0.15 0.00 65 1002.5
20260509204549 62 201 17.0 26.0 0.00 0.15 0.00 65 1002.6
20260509204049 62 195 12.0 21.0 0.00 0.15 0.00 67 1002.6
20260509203059 62 360 12.0 28.0 0.00 0.15 0.00 66 1002.9
20260509202548 62 208 15.0 28.0 0.00 0.15 0.00 65 1003.0
20260509202047 62 197 15.0 26.0 0.00 0.15 0.00 67 1003.1
20260509201546 61 360 15.0 26.0 0.00 0.15 0.00 68 1003.2
20260509201045 61 360 13.0 26.0 0.00 0.15 0.00 69 1003.2
20260509200544 61 360 14.0 26.0 0.00 0.15 0.00 69 1003.4
20260509200044 61 218 12.0 24.0 0.00 0.15 0.00 68 1003.2
20260509195543 61 211 14.0 27.0 0.00 0.15 0.00 68 1003.3
20260509195042 61 199 17.0 27.0 0.00 0.15 0.00 70 1003.5
20260509194547 60 360 15.0 23.0 0.00 0.15 0.00 70 1003.5
20260509194043 60 360 13.0 28.0 0.00 0.15 0.00 73 1003.6
20260509193042 60 360 18.0 28.0 0.00 0.15 0.00 71 1003.9
20260509192541 60 360 14.0 19.0 0.00 0.15 0.00 72 1003.7
20260509192044 61 208 10.0 19.0 0.00 0.15 0.00 70 1003.6
20260509191555 61 192 11.0 18.0 0.00 0.15 0.00 71 1003.7
20260509191040 60 215 10.0 17.0 0.00 0.15 0.00 73 1003.6
20260509190541 61 219 14.0 22.0 0.00 0.15 0.00 72 1003.8
20260509190046 60 223 14.0 22.0 0.00 0.15 0.00 70 1003.8
20260509185538 60 360 13.0 22.0 0.00 0.15 0.00 72 1003.8
20260509185038 60 360 11.0 18.0 0.00 0.15 0.00 72 1003.9
20260509184548 59 221 10.0 21.0 0.00 0.15 0.00 75 1003.9
20260509184037 60 360 8.0 15.0 0.00 0.15 0.00 75 1004.1
20260509183047 60 219 9.0 18.0 0.00 0.15 0.00 76 1004.1
20260509182537 59 215 12.0 18.0 0.00 0.15 0.00 75 1004.1
20260509182035 60 223 10.0 17.0 0.00 0.15 0.00 77 1004.1
20260509181534 59 360 10.0 21.0 0.00 0.15 0.00 77 1004.3
20260509181034 59 360 11.0 21.0 0.00 0.15 0.00 78 1004.2
20260509180533 58 231 9.0 15.0 0.00 0.15 0.00 79 1004.2
20260509180032 58 360 11.0 15.0 0.00 0.15 0.00 81 1004.1
20260509175529 57 252 6.0 14.0 0.00 0.15 0.00 84 1004.2
20260509175030 57 151 9.0 14.0 0.00 0.15 0.00 84 1004.3
20260509174528 57 210 7.0 14.0 0.00 0.15 0.00 84 1004.4
20260509174027 56 360 9.0 17.0 0.00 0.15 0.00 86 1004.4
20260509173028 56 360 9.0 17.0 0.00 0.15 0.00 85 1004.5
20260509172527 55 199 8.0 17.0 0.00 0.15 0.00 85 1004.6
20260509172026 55 207 10.0 17.0 0.00 0.15 0.00 87 1004.7
20260509171525 55 202 10.0 17.0 0.00 0.15 0.00 90 1004.8
20260509171023 54 223 8.0 17.0 0.00 0.15 0.00 90 1004.8
20260509170523 54 218 12.0 17.0 0.00 0.15 0.00 89 1004.8
20260509170023 54 209 10.0 14.0 0.00 0.15 0.00 90 1004.9
20260509165520 54 220 9.0 14.0 0.00 0.15 0.00 91 1005.0
20260509165018 53 199 8.0 17.0 0.00 0.15 0.00 91 1005.1
20260509164518 53 196 6.0 11.0 0.00 0.15 0.00 92 1005.1
20260509164017 53 221 7.0 12.0 0.00 0.15 0.00 92 1005.1
20260509163026 53 201 8.0 12.0 0.00 0.15 0.00 93 1005.1
20260509162513 52 360 6.0 11.0 0.00 0.15 0.00 93 1005.2
20260509162012 52 205 7.0 14.0 0.00 0.15 0.00 93 1005.1
20260509161514 52 218 7.0 12.0 0.00 0.15 0.00 94 1005.1
20260509161010 52 230 6.0 10.0 0.00 0.15 0.00 94 1005.1
20260509160509 51 220 8.0 10.0 0.00 0.15 0.00 94 1005.1
20260509160009 51 194 5.0 8.0 0.00 0.15 0.00 94 1005.1
20260509155508 51 230 4.0 7.0 0.00 0.15 0.00 94 1005.1
20260509155009 51 202 3.0 7.0 0.00 0.15 0.00 94 1005.1
20260509154508 51 208 4.0 8.0 0.00 0.15 0.00 94 1005.2
20260509154007 51 360 5.0 12.0 0.00 0.15 0.00 94 1005.2
20260509153009 51 208 4.0 9.0 0.00 0.15 0.00 95 1005.2
20260509152507 51 225 6.0 9.0 0.00 0.15 0.00 95 1005.2
20260509152007 51 360 4.0 9.0 0.00 0.15 0.00 95 1005.2
20260509151506 51 221 6.0 9.0 0.00 0.15 0.00 95 1005.2
20260509151005 51 224 6.0 10.0 0.00 0.15 0.00 95 1005.1
20260509150506 50 196 6.0 12.0 0.00 0.15 0.00 95 1005.1
20260509150003 50 214 7.0 14.0 0.00 0.15 0.00 95 1005.2
20260509145503 50 360 7.0 12.0 0.00 0.15 0.00 95 1005.2
20260509145002 50 360 7.0 12.0 0.00 0.15 0.00 95 1005.2
20260509144502 50 218 4.0 9.0 0.00 0.15 0.00 95 1005.3
20260509144001 50 224 6.0 11.0 0.00 0.15 0.00 95 1005.2
20260509143100 50 229 5.0 10.0 0.00 0.15 0.00 95 1005.2
20260509142602 49 360 7.0 11.0 0.00 0.15 0.00 95 1005.1
20260509142059 49 216 7.0 11.0 0.00 0.15 0.00 95 1005.1
20260509141559 49 360 6.0 12.0 0.00 0.15 0.00 95 1005.2
20260509141102 49 360 7.0 12.0 0.00 0.15 0.00 95 1005.1
20260509140558 49 199 5.0 12.0 0.00 0.15 0.00 95 1005.1
20260509135558 49 213 8.0 11.0 0.00 0.15 0.00 95 1005.1
20260509135058 49 182 5.0 11.0 0.00 0.15 0.00 95 1005.2
20260509134557 49 196 7.0 11.0 0.00 0.15 0.00 95 1005.2
20260509134057 49 360 6.0 11.0 0.00 0.15 0.00 95 1005.2
20260509133057 49 221 5.0 10.0 0.00 0.15 0.00 95 1005.2
20260509132558 49 209 6.0 12.0 0.00 0.15 0.00 95 1005.2
20260509132058 49 360 6.0 12.0 0.00 0.15 0.00 95 1005.2
20260509131559 49 205 8.0 15.0 0.00 0.15 0.00 95 1005.4
20260509131054 48 200 7.0 13.0 0.00 0.15 0.00 95 1005.3
20260509130558 48 360 6.0 13.0 0.00 0.15 0.00 95 1005.4
20260509130105 48 360 6.0 12.0 0.00 0.15 0.00 95 1005.4
20260509125553 48 196 7.0 12.0 0.00 0.15 0.00 95 1005.4
20260509125052 48 360 7.0 12.0 0.00 0.15 0.00 95 1005.5
20260509124555 48 360 6.0 11.0 0.00 0.15 0.00 95 1005.5
20260509124055 48 360 7.0 11.0 0.00 0.15 0.00 95 1005.6
20260509123052 48 360 6.0 10.0 0.00 0.15 0.00 95 1005.8
20260509122552 48 360 6.0 11.0 0.00 0.15 0.00 95 1005.8
20260509122049 48 141 5.0 11.0 0.00 0.15 0.00 95 1005.8
20260509121556 48 360 6.0 11.0 0.00 0.15 0.00 95 1005.8
20260509121049 48 360 7.0 10.0 0.00 0.15 0.00 95 1005.9
20260509120551 47 360 5.0 10.0 0.00 0.15 0.00 95 1005.9
20260509120046 47 360 6.0 10.0 0.00 0.15 0.00 95 1005.8
20260509115545 47 360 6.0 10.0 0.00 0.15 0.00 95 1005.9
20260509115045 47 360 6.0 11.0 0.00 0.15 0.00 95 1005.9
20260509114552 47 360 7.0 11.0 0.00 0.15 0.00 95 1005.9
20260509114042 47 360 5.0 11.0 0.00 0.15 0.00 95 1006.0
20260509113052 47 360 4.0 8.0 0.00 0.15 0.00 95 1006.0
20260509112541 47 360 5.0 9.0 0.00 0.15 0.15 95 1006.0
20260509112041 47 360 4.0 10.0 0.00 0.15 0.15 95 1005.9
20260509111541 47 360 5.0 9.0 0.00 0.15 0.15 95 1005.9
20260509111041 47 360 6.0 10.0 0.00 0.15 0.15 95 1005.9
20260509110541 47 360 4.0 9.0 0.00 0.15 0.15 95 1005.8
20260509110041 47 360 6.0 10.0 0.00 0.15 0.15 95 1005.9
20260509105542 47 360 5.0 11.0 0.00 0.15 0.15 95 1005.7
20260509105041 47 360 5.0 10.0 0.00 0.15 0.15 95 1005.7
20260509104540 47 360 5.0 8.0 0.00 0.15 0.15 95 1005.7
20260509104039 47 360 4.0 12.0 0.00 0.15 0.15 95 1005.8
20260509103054 47 148 4.0 7.0 0.01 0.15 0.15 95 1005.8
20260509102542 47 360 4.0 8.0 0.01 0.15 0.15 95 1005.8
20260509102042 47 360 5.0 8.0 0.01 0.15 0.15 95 1005.8
20260509101557 47 360 4.0 8.0 0.01 0.15 0.15 95 1005.9
20260509101041 47 360 4.0 8.0 0.01 0.15 0.15 95 1005.8
20260509100541 47 360 4.0 8.0 0.01 0.15 0.15 95 1005.9
20260509100041 47 360 4.0 9.0 0.01 0.15 0.15 95 1005.9
20260509095541 47 360 4.0 9.0 0.01 0.15 0.15 95 1006.0
20260509095040 47 360 3.0 8.0 0.01 0.15 0.15 95 1006.0
20260509094545 47 360 4.0 8.0 0.01 0.15 0.15 95 1006.0
20260509094041 47 146 5.0 10.0 0.01 0.15 0.15 95 1006.1
20260509093037 47 360 3.0 7.0 0.01 0.15 0.15 94 1006.1
20260509092536 47 360 3.0 9.0 0.00 0.14 0.14 94 1006.1
20260509092036 47 360 4.0 9.0 0.00 0.14 0.14 94 1006.2
20260509091537 47 360 4.0 6.0 0.00 0.14 0.14 94 1006.2
20260509091039 47 200 4.0 7.0 0.00 0.14 0.14 94 1006.2
20260509090540 47 205 4.0 8.0 0.00 0.14 0.14 94 1006.2
20260509090045 47 360 5.0 9.0 0.00 0.14 0.14 94 1006.2
20260509085536 47 360 5.0 9.0 0.00 0.14 0.14 94 1006.2
20260509085036 47 360 4.0 9.0 0.00 0.14 0.14 94 1006.2
20260509084538 47 360 5.0 9.0 0.00 0.14 0.14 94 1006.2
20260509084036 47 360 4.0 8.0 0.01 0.14 0.14 94 1006.3
20260509083050 47 360 5.0 8.0 0.01 0.14 0.14 94 1006.3
20260509082536 47 360 5.0 15.0 0.01 0.14 0.14 94 1006.2
20260509082036 47 360 8.0 15.0 0.01 0.14 0.14 94 1006.2
20260509081536 47 360 3.0 8.0 0.01 0.14 0.14 94 1006.2
20260509081036 47 196 6.0 9.0 0.01 0.14 0.14 94 1006.2
20260509080536 47 360 5.0 9.0 0.01 0.14 0.14 94 1006.2
20260509080039 47 360 6.0 9.0 0.01 0.14 0.14 94 1006.3
20260509075536 47 360 4.0 7.0 0.01 0.14 0.14 94 1006.3
20260509075035 47 196 5.0 8.0 0.01 0.14 0.14 94 1006.4
20260509074538 47 360 6.0 8.0 0.01 0.14 0.14 94 1006.4
20260509073037 47 360 4.0 8.0 0.00 0.13 0.13 94 1006.2
20260509072535 47 360 6.0 8.0 0.00 0.13 0.13 94 1006.2
20260509072032 47 360 4.0 8.0 0.01 0.13 0.13 94 1006.3
20260509071541 47 360 5.0 9.0 0.01 0.13 0.13 94 1006.3
20260509071032 47 360 5.0 9.0 0.02 0.13 0.13 94 1006.4
20260509070533 47 360 5.0 12.0 0.03 0.13 0.13 94 1006.5
20260509070031 47 360 8.0 12.0 0.04 0.13 0.13 94 1006.5
20260509065531 47 360 5.0 9.0 0.04 0.13 0.13 94 1006.6
20260509065031 47 360 5.0 9.0 0.05 0.13 0.13 94 1006.6
20260509064531 47 360 5.0 9.0 0.05 0.13 0.13 94 1006.5
20260509064030 47 360 6.0 9.0 0.05 0.13 0.13 94 1006.6
20260509063032 47 360 5.0 9.0 0.05 0.13 0.13 94 1006.8
20260509062529 47 360 6.0 10.0 0.05 0.13 0.13 94 1006.9
20260509062029 47 148 4.0 10.0 0.05 0.13 0.13 94 1006.9
20260509061529 47 146 5.0 9.0 0.04 0.12 0.12 94 1007.0
20260509061030 47 360 5.0 10.0 0.04 0.12 0.12 94 1007.0
20260509060526 47 360 6.0 12.0 0.02 0.10 0.10 94 1007.2
20260509060027 47 360 4.0 12.0 0.02 0.09 0.09 94 1007.2
20260509055527 47 360 4.0 9.0 0.02 0.09 0.09 94 1007.2
20260509055025 47 360 5.0 9.0 0.02 0.09 0.09 94 1007.5
20260509054527 47 360 5.0 8.0 0.01 0.08 0.08 94 1007.5
20260509054024 47 360 5.0 10.0 0.01 0.08 0.08 94 1007.5
20260509053033 47 360 6.0 10.0 0.01 0.08 0.08 94 1007.6
20260509052523 47 360 6.0 12.0 0.01 0.08 0.08 94 1007.8
20260509052024 47 360 6.0 12.0 0.01 0.08 0.08 94 1007.9
20260509051522 47 360 7.0 12.0 0.01 0.08 0.08 94 1008.0
20260509051022 47 360 8.0 12.0 0.01 0.08 0.08 94 1008.0
20260509050523 47 360 6.0 11.0 0.01 0.08 0.08 94 1008.1
20260509050022 47 146 6.0 11.0 0.00 0.07 0.07 94 1008.1
20260509045528 47 360 7.0 12.0 0.00 0.07 0.07 94 1008.1
20260509045022 47 360 7.0 12.0 0.00 0.07 0.07 94 1008.2
20260509044522 47 360 4.0 10.0 0.00 0.07 0.07 94 1008.1
20260509044021 47 360 5.0 10.0 0.00 0.07 0.07 94 1008.2
20260509043021 47 360 6.0 9.0 0.00 0.07 0.07 94 1008.3
20260509042523 47 360 5.0 9.0 0.00 0.07 0.07 94 1008.3
20260509042021 47 360 6.0 13.0 0.00 0.07 0.07 94 1008.4
20260509041521 47 153 6.0 13.0 0.00 0.07 0.07 94 1008.4
20260509041021 47 360 7.0 13.0 0.00 0.07 0.07 94 1008.5
20260509040520 47 360 7.0 11.0 0.00 0.07 0.07 94 1008.5
20260509040028 47 360 6.0 11.0 0.00 0.07 0.07 94 1008.5
20260509035521 47 360 6.0 10.0 0.00 0.07 0.07 94 1008.5
20260509035021 47 360 6.0 10.0 0.00 0.07 0.07 94 1008.4
20260509034520 47 360 6.0 11.0 0.00 0.07 0.07 94 1008.6
20260509034020 47 360 6.0 10.0 0.01 0.07 0.07 94 1008.6
20260509033022 47 360 4.0 9.0 0.02 0.07 0.07 94 1008.7
20260509032523 47 360 5.0 9.0 0.03 0.07 0.07 94 1008.8
20260509032022 47 360 3.0 5.0 0.04 0.07 0.07 94 1008.9
20260509031529 47 360 3.0 7.0 0.05 0.07 0.07 94 1008.8
20260509031022 47 360 4.0 7.0 0.05 0.07 0.07 93 1008.9
20260509030522 47 203 2.0 7.0 0.06 0.07 0.07 93 1008.9
20260509030040 47 207 4.0 8.0 0.07 0.07 0.07 93 1008.9
20260509025521 47 217 5.0 8.0 0.07 0.07 0.07 93 1009.0
20260509025021 47 360 4.0 9.0 0.07 0.07 0.07 93 1009.0
20260509024521 47 198 4.0 9.0 0.07 0.07 0.07 93 1009.0
20260509024021 47 211 6.0 9.0 0.07 0.07 0.07 93 1009.1
20260509023022 47 196 5.0 9.0 0.05 0.05 0.05 93 1009.2
20260509022520 47 199 6.0 11.0 0.04 0.04 0.04 93 1009.2
20260509022018 47 202 6.0 11.0 0.04 0.04 0.04 93 1009.2
20260509021530 47 360 7.0 11.0 0.03 0.03 0.03 92 1009.3
20260509021018 47 360 6.0 11.0 0.02 0.02 0.02 92 1009.3
20260509020520 47 360 7.0 10.0 0.01 0.01 0.01 92 1009.3
20260509020018 47 360 6.0 10.0 0.01 0.01 0.01 91 1009.3
20260509015518 48 221 7.0 11.0 0.00 0.00 0.00 91 1009.3
20260509015017 48 213 7.0 10.0 0.00 0.00 0.00 91 1009.2
20260509014517 48 199 6.0 14.0 0.00 0.00 0.00 91 1009.1
20260509014020 48 198 8.0 14.0 0.00 0.00 0.00 90 1009.1
20260509013018 49 200 6.0 10.0 0.00 0.00 0.00 90 1008.9
20260509012521 49 360 6.0 10.0 0.00 0.00 0.00 89 1008.9
20260509012019 49 360 7.0 10.0 0.00 0.00 0.00 89 1008.8
20260509011517 49 360 7.0 11.0 0.00 0.00 0.00 88 1008.7
20260509011018 50 360 7.0 13.0 0.00 0.00 0.00 87 1008.7
20260509010517 50 360 7.0 13.0 0.00 0.00 0.00 87 1008.7
20260509010018 50 360 7.0 11.0 0.00 0.00 0.00 86 1008.7
20260509005519 50 360 7.0 11.0 0.00 0.00 0.00 85 1008.7
20260509005017 50 360 5.0 8.0 0.00 0.00 0.00 84 1008.5
20260509004524 51 169 3.0 5.0 0.00 0.00 0.00 82 1008.6
20260509004020 51 152 2.0 5.0 0.00 0.00 0.00 80 1008.6
20260509003016 51 283 1.0 3.0 0.00 0.00 0.00 76 1008.5
20260509002515 51 284 1.0 2.0 0.00 0.00 0.00 76 1008.6
20260509002016 51 284 0.0 3.0 0.00 0.00 0.00 76 1008.5
20260509001516 51 284 1.0 4.0 0.00 0.00 0.00 76 1008.7
20260509001015 51 288 2.0 3.0 0.00 0.00 0.00 75 1008.7
20260509000515 51 288 1.0 3.0 0.00 0.00 0.00 75 1008.6
20260509000015 51 288 0.0 3.0 0.00 0.00 0.00 75 1008.6
20260508235518 51 288 0.0 3.0 0.00 0.00 0.00 75 1008.6
20260508235020 51 288 0.0 3.0 0.00 0.00 0.00 75 1008.6
20260508234516 51 288 1.0 3.0 0.00 0.00 0.00 74 1008.6
20260508234015 51 289 0.0 3.0 0.00 0.00 0.00 74 1008.5
20260508233014 51 285 2.0 5.0 0.00 0.00 0.00 73 1008.5
20260508232514 51 284 2.0 5.0 0.00 0.00 0.00 73 1008.6
20260508232014 52 286 2.0 4.0 0.00 0.00 0.00 72 1008.4
20260508231514 52 280 2.0 4.0 0.00 0.00 0.00 72 1008.5
20260508231014 52 348 0.0 5.0 0.00 0.00 0.00 72 1008.4
20260508230513 52 348 1.0 5.0 0.00 0.00 0.00 71 1008.4
20260508230013 52 341 1.0 5.0 0.00 0.00 0.00 70 1008.5
20260508225513 52 320 2.0 6.0 0.00 0.00 0.00 69 1008.4
20260508225016 52 325 1.0 6.0 0.00 0.00 0.00 68 1008.3
20260508224513 52 328 2.0 5.0 0.00 0.00 0.00 69 1008.4